Preview of NWS' New Version of Forecast
This preview is not operational and should not be used for support decisions.

Regional Weather Roundup (RWR)

Issued by National Weather Service (NWS)

                            
000
ASUS42 KTBW 230117
RWRFL 
FLORIDA REGIONAL WEATHER ROUNDUP
NATIONAL WEATHER SERVICE TAMPA BAY RUSKIN FL
900 PM EDT THU AUG 22 2019

NOTE: "FAIR" INDICATES FEW OR NO CLOUDS BELOW 12,000 FEET WITH NO
SIGNIFICANT WEATHER AND/OR OBSTRUCTIONS TO VISIBILITY.

FLZ001>010-012>015-112-114-115-230200-
PANHANDLE FLORIDA
  
CITY           SKY/WX    TMP DP  RH WIND       PRES   REMARKS
PENSACOLA      FAIR      82  78  88 S7        29.99R                  
PENSACOLA NAS  MOCLDY    82  78  88 S9        29.99R                  
MILTON NAS     FAIR      79  76  90 SE6       30.00R                  
CRESTVIEW      FAIR      81  75  82 S3        30.02R                  
DUKE FIELD     MOCLDY    80  77  89 CALM      30.01R                  
VALPARAISO     CLOUDY    82  75  78 S3        30.00R                  
MARY ESTHER    MOCLDY    83  76  79 S6        29.99R                  
TRI COUNTY     MOCLDY    81  76  84 CALM      30.02                   
PANAMA CITY    FAIR      79  76  90 SE6       30.00R                  
TYNDALL AFB    FAIR      82  77  82 S9        30.00R                  
APALACHICOLA   FAIR      83  74  74 S8        30.00S                  

STATION/POSITION SKY/WX   TEMP    WIND        PRES    WAVE   SWELL
                          AIR SEA DIR/SP/G            HT/PER HT/PER
                          (F)     (DEG/KT/KT) (MB)    (FT/S) (FT/S)
30.1N   87.6W              84 87  160/ 10/ 12 1015.5R   1/ 4
29.2N   88.2W              85 86  170/ 12/ 14 1015.7R   2/ 7
28.8N   86.0W                 85  180/ 10/ 12 1016.3R   2/ 4   2/ 6
PANAMA CITY BEAC           83 87  170/ 12/ 14 1016.2R
TOWER C                    83     200/  8/  8 1016.6R
28.5N   84.5W              85     160/  6/  8 1016.7R   2/ 6   2/ 6

$$
FLZ011-016>038-118-127-128-134-139-239-230200-
NORTH FLORIDA
  
CITY           SKY/WX    TMP DP  RH WIND       PRES   REMARKS
MARIANNA       CLOUDY    84  72  67 S8        30.00R                  
TALLAHASSEE    MOCLDY    83  77  82 CALM      30.00R                  
PERRY          FAIR      80  79  97 CALM      30.02R                  
LIVE OAK       CLEAR     81  79  94 CALM      30.00S                  
CROSS CITY     FAIR      83  78  85 NW3       30.01S                  
LAKE CITY      FAIR      81  73  78 SE5       30.03R                  
GAINESVILLE    FAIR      81  73  76 E3        30.05R                  
WILLISTON      FAIR      80  76  87 CALM      30.02R                  
MAYPORT NAS    FAIR      83  75  77 SE10      30.03R                  
JACKSONVILLE   FAIR      82  75  79 SE9       30.02R                  
JAX NAS        MOCLDY    84  74  71 SE12      30.03R                  
JAX CECIL      CLEAR     82  73  74 SE7       30.03R                  
FERNANDINA BEA FAIR      82  77  84 MISG      30.03R                  
ST AUGUSTINE   FAIR      82  77  84 E10       30.04S                  
PALM COAST     FAIR      80  76  88 SE5       30.03S                  

STATION/POSITION SKY/WX   TEMP    WIND        PRES    WAVE   SWELL
                          AIR SEA DIR/SP/G            HT/PER HT/PER
                          (F)     (DEG/KT/KT) (MB)    (FT/S) (FT/S)
SHELL POINT      NOT AVBL
KEATON BEACH               84     260/  5/  7 1016.4R
CEDAR KEY                  85     310/  4/  5 1015.8R
FERNANDINA                 87 87              1017.3S
30.7N   81.3W                 84                N/A     2/11
MAYPORT                    83 85  120/  6/  9 1017.1F
31.4N   80.9W              83 83  150/ 12/ 14 1016.7R   2/ 6   2/ 6
ST AUGUSTINE               83 85  110/  9/ 10 1017.2R

$$
FLZ040-043>046-052-053-057-058-063-144-230200-
INTERIOR CENTRAL FLORIDA
  
CITY           SKY/WX    TMP DP  RH WIND       PRES   REMARKS
OCALA          FAIR      83  75  77 E7        30.03R                  
LEESBURG       FAIR      84  73  69 E8        30.03R                  
SANFORD        FAIR      82  74  76 E7        30.03R                  
ORLANDO EXEC   FAIR      82  73  74 E8        30.03R                  
ORLANDO INTL   MOCLDY    82  73  74 E7        30.03R                  
KISSIMMEE      FAIR      83  75  77 SE7       30.04R                  
WINTER HAVEN   FAIR      85  73  67 E9        30.03R                  
LAKELAND       CLEAR     82  72  69 E7        30.02R                  
SEBRING        FAIR      80  75  84 E6        30.02R                  
OKEECHOBEE     FAIR      79  73  83 E3        30.00F                  

$$
FLZ041-047-054-059-064-141-147-230200-
EAST CENTRAL FLORIDA
  
CITY           SKY/WX    TMP DP  RH WIND       PRES   REMARKS
DAYTONA BEACH  FAIR      82  75  79 CALM      30.03S                  
DELAND         FAIR      79  73  83 E5        30.03R                  
NEW SMYRNA BEA CLEAR     84  75  74 SE5       30.04S                  
JFK SPACE CTR  FAIR      80  58  46 SE5       30.02R                  
TITUSVILLE     PTCLDY    84  75  74 E7        30.04R                  
CAPE CANAVERAL FAIR      81  78  90 CALM      30.01S                  
PATRICK AFB    FAIR      83  79  86 E12       30.01S                  
MELBOURNE      FAIR      85  74  69 E12       30.01S                  
VERO BEACH     LGT RAIN  76  73  91 NE10      30.02R                  
FT PIERCE      FAIR      80  72  76 NE6       30.01S                  
STUART         PTCLDY    82  75  78 E6        30.01F                  

STATION/POSITION SKY/WX   TEMP    WIND        PRES    WAVE   SWELL
                          AIR SEA DIR/SP/G            HT/PER HT/PER
                          (F)     (DEG/KT/KT) (MB)    (FT/S) (FT/S)
28.5N   80.2W              84 83  100/ 10/ 12 1016.4F   2/ 4   2/ 8
28.9N   78.5W              85 86   80/ 12/ 16 1017.4R   3/ 8   2/ 8
TRIDENT PIER               82 84   80/  6/ 10 1018.0S
28.4N   80.5W                 83                N/A     2/ 4
27.5N   80.2W                 83                N/A     3/ 5

$$
FLZ050-056-061-142-242-148-248-149-249-151-251-155-255-
160-260-230200-
WEST CENTRAL FLORIDA
  
CITY           SKY/WX    TMP DP  RH WIND       PRES   REMARKS
CRYSTAL RIVER  MOCLDY    82  73  74 CALM      30.02R                  
INVERNESS      FAIR      82  79  89 CALM      30.02R                  
BROOKSVILLE    FAIR      81  74  79 E5        30.02R                  
CLEARWATER AIR CLOUDY    86  73  66 SE6       30.00R                  
ST PETE CLEARW CLOUDY    87  73  62 SE9       30.00R                  
TAMPA INTL     FAIR      87  72  60 SE10      30.01R                  
PLANT CITY     FAIR      84  75  74 E6        30.04R                  
MACDILL AFB    FAIR      85  73  67 SE9       30.00R                  
PETER O KNIGHT CLOUDY    86  75  70 E5        30.01R HX  95           
ST PETERSBURG  FAIR      87  75  67 SE10      29.99R HX  96           
SARASOTA       FAIR      84  74  71 E9        29.99R                  
VENICE         FAIR      82  73  74 E9        30.01R                  

STATION/POSITION SKY/WX   TEMP    WIND        PRES    WAVE   SWELL
                          AIR SEA DIR/SP/G            HT/PER HT/PER
                          (F)     (DEG/KT/KT) (MB)    (FT/S) (FT/S)
27.3N   84.2W                 87                N/A     2/ 6
CLEARWATER BEACH           86 89  360/  9/ 10 1016.0R
MIDDLE TAMPA BAY           85     150/  8/ 10 1016.0R
VENICE                     83 86   90/  7/  9 1016.0R

$$
FLZ066-069-070-075>078-162-262-165-265-230200-
SOUTHWEST FLORIDA AND KEYS
  
CITY           SKY/WX    TMP DP  RH WIND       PRES   REMARKS
PUNTA GORDA    FAIR      81  77  88 E7        30.01R                  
FT MYERS       FAIR      81  75  82 E6        29.99R                  
SOUTHWEST INTL FAIR      80  76  87 NE3       30.00R                  
NAPLES         FAIR      83  76  79 E5        29.99R                  
MARCO ISLAND   FAIR     N/A N/A N/A NE3         N/A                   
IMMOKALEE        N/A     81  77  89 CALM      29.98S                  
MARATHON       FAIR      85  75  72 NE5       29.97R                  
KEY WEST NAS   FAIR      86  75  69 NE8       29.98R HX  95           
KEY WEST INTL  FAIR      84  75  74 NE6       29.98R                  

STATION/POSITION SKY/WX   TEMP    WIND        PRES    WAVE   SWELL
                          AIR SEA DIR/SP/G            HT/PER HT/PER
                          (F)     (DEG/KT/KT) (MB)    (FT/S) (FT/S)
NAPLES                     83 87              1015.5R
26.0N   85.6W              84 86   CALM  /  2 1016.4R   1/ 7   2/ 7
DRY TORTUGAS               85      10/  8/  9 1015.8R
SAND KEY                   84      30/ 10/ 13 1014.0R
SOMBRERO KEY               83      50/  8/ 10 1015.0R
LONG KEY                   84                 1014.0

$$
FLZ067-068-071>074-168-172>174-230200-
SOUTHEAST FLORIDA 
  
CITY           SKY/WX    TMP DP  RH WIND       PRES   REMARKS
W PALM BEACH   FAIR      84  73  69 E14       30.00R                  
BOCA RATON     PTCLDY    82  77  83 NE8       29.98S                  
FT LAUDER-EXEC FAIR      81  75  82 N5        29.99R                  
FT LAUDERDALE  MOCLDY    82  74  76 E9        29.97R                  
POMPANO BEACH  FAIR      83  74  74 NE8       29.98R                  
PEMBROKE PINES LGT RAIN  82  75  79 NE7       29.99R                  
OPA LOCKA      FAIR      83  75  77 NE8       29.98R                  
MIAMI          MOCLDY    83  73  72 E6        29.98R                  
WEST KENDALL   FAIR      82  76  81 NE7       29.98R                  
HOMESTEAD      FAIR      82  76  80 N8        29.96R                  

STATION/POSITION SKY/WX   TEMP    WIND        PRES    WAVE   SWELL
                          AIR SEA DIR/SP/G            HT/PER HT/PER
                          (F)     (DEG/KT/KT) (MB)    (FT/S) (FT/S)
VIRGINIA KEY               83 89   30/  6/ 11 1014.5R
LAKE WORTH                 83 86   50/ 15/ 19 1016.6R
FOWEY ROCKS                82 87   40/ 19/ 20 1015.1R
SETTLEMENT POINT           83      80/ 14/ 16 1015.1F

$$